Time,TemperatureF,DewpointF,PressureIn,WindDirection,WindDirectionDegrees,WindSpeedMPH,WindSpeedGustMPH,Humidity,HourlyPrecipIn,Conditions,Clouds,dailyrainin,SolarRadiationWatts/m^2,SoftwareType,DateUTC
2013-04-30 00:21:00,47.0,33.0,-100.00,NW,313,0.0,1.0,58,-99.99,,,-99.99,0.000000,,2013-04-30 07:21:00,
2013-04-30 00:30:00,47.0,33.0,-100.00,WNW,282,1.0,2.0,60,-99.99,,,-99.99,0.000000,,2013-04-30 07:30:00,
2013-04-30 01:21:00,47.0,33.0,-100.00,WNW,282,1.0,2.0,60,-99.99,,,-99.99,0.000000,,2013-04-30 08:21:00,
2013-04-30 01:30:00,46.0,34.0,-100.00,NW,318,1.0,2.0,63,-99.99,,,-99.99,0.000000,,2013-04-30 08:30:00,
2013-04-30 02:22:00,46.0,34.0,-100.00,NW,318,1.0,2.0,63,-99.99,,,-99.99,0.000000,,2013-04-30 09:22:00,
2013-04-30 02:30:00,44.0,34.0,-100.00,NW,315,1.0,3.0,68,-99.99,,,-99.99,0.000000,,2013-04-30 09:30:00,
2013-04-30 03:22:00,44.0,34.0,-100.00,NW,315,1.0,3.0,68,-99.99,,,-99.99,0.000000,,2013-04-30 10:22:00,
2013-04-30 03:30:00,44.0,35.0,-100.00,NW,320,1.0,2.0,69,-99.99,,,-99.99,0.000000,,2013-04-30 10:30:00,
2013-04-30 04:21:00,44.0,35.0,-100.00,NW,320,1.0,2.0,69,-99.99,,,-99.99,0.000000,,2013-04-30 11:21:00,
2013-04-30 04:30:00,45.0,35.0,-100.00,WNW,284,2.0,3.0,68,-99.99,,,-99.99,0.000000,,2013-04-30 11:30:00,
2013-04-30 05:21:00,45.0,35.0,-100.00,WNW,284,2.0,3.0,68,-99.99,,,-99.99,0.000000,,2013-04-30 12:21:00,
2013-04-30 07:30:00,46.0,33.0,-100.00,SSW,192,3.0,5.0,60,-99.99,,,-99.99,65.000000,,2013-04-30 14:30:00,
2013-04-30 08:21:00,46.0,33.0,-100.00,SSW,192,3.0,5.0,60,-99.99,,,-99.99,65.000000,,2013-04-30 15:21:00,
2013-04-30 08:30:00,49.0,36.0,-100.00,SSE,163,4.0,6.0,60,-99.99,,,-99.99,295.000000,,2013-04-30 15:30:00,
2013-04-30 09:22:00,49.0,36.0,-100.00,SSE,163,4.0,6.0,60,-99.99,,,-99.99,295.000000,,2013-04-30 16:22:00,
2013-04-30 10:30:00,54.0,33.0,-100.00,SSW,197,5.0,12.0,45,-99.99,,,-99.99,620.000000,,2013-04-30 17:30:00,
2013-04-30 11:22:00,54.0,33.0,-100.00,SSW,197,5.0,12.0,45,-99.99,,,-99.99,620.000000,,2013-04-30 18:22:00,
2013-04-30 11:30:00,56.0,36.0,-100.00,WNW,299,2.0,6.0,48,-99.99,,,-99.99,605.000000,,2013-04-30 18:30:00,
2013-04-30 12:21:00,56.0,36.0,-100.00,WNW,299,2.0,6.0,48,-99.99,,,-99.99,605.000000,,2013-04-30 19:21:00,
2013-04-30 12:30:00,55.0,35.0,-100.00,NNW,334,2.0,4.0,47,-99.99,,,-99.99,444.000000,,2013-04-30 19:30:00,
2013-04-30 13:21:00,55.0,35.0,-100.00,NNW,334,2.0,4.0,47,-99.99,,,-99.99,444.000000,,2013-04-30 20:21:00,
2013-04-30 13:30:00,57.0,35.0,-100.00,WSW,254,4.0,9.0,44,-99.99,,,-99.99,835.000000,,2013-04-30 20:30:00,
2013-04-30 14:22:00,57.0,35.0,-100.00,WSW,254,4.0,9.0,44,-99.99,,,-99.99,835.000000,,2013-04-30 21:22:00,
2013-04-30 14:30:00,57.0,37.0,-100.00,West,260,2.0,7.0,48,-99.99,,,-99.99,639.000000,,2013-04-30 21:30:00,
2013-04-30 15:30:00,57.0,37.0,-100.00,WNW,295,3.0,7.0,47,-99.99,,,-99.99,340.000000,,2013-04-30 22:30:00,
2013-04-30 17:30:00,53.0,41.0,-100.00,WNW,295,2.0,6.0,63,-99.99,,,-99.99,141.000000,,2013-05-01 00:30:00,
2013-04-30 18:21:00,53.0,41.0,-100.00,WNW,295,2.0,6.0,63,-99.99,,,-99.99,141.000000,,2013-05-01 01:21:00,
2013-04-30 18:30:00,52.0,40.0,-100.00,NW,320,2.0,7.0,62,-99.99,,,-99.99,58.000000,,2013-05-01 01:30:00,
2013-04-30 19:21:00,52.0,40.0,-100.00,NW,320,2.0,7.0,62,-99.99,,,-99.99,58.000000,,2013-05-01 02:21:00,
2013-04-30 19:30:00,49.0,36.0,-100.00,NNW,334,2.0,3.0,60,-99.99,,,-99.99,13.000000,,2013-05-01 02:30:00,
2013-04-30 20:21:00,49.0,36.0,-100.00,NNW,334,2.0,3.0,60,-99.99,,,-99.99,13.000000,,2013-05-01 03:21:00,
2013-04-30 20:30:00,47.0,21.0,-100.00,ENE,78,4.0,12.0,35,-99.99,,,-99.99,0.000000,,2013-05-01 03:30:00,
2013-04-30 21:22:00,47.0,21.0,-100.00,ENE,78,4.0,12.0,35,-99.99,,,-99.99,0.000000,,2013-05-01 04:22:00,
2013-04-30 21:30:00,44.0,10.0,-100.00,NE,52,6.0,14.0,24,-99.99,,,-99.99,0.000000,,2013-05-01 04:30:00,
2013-04-30 22:21:00,44.0,10.0,-100.00,NE,52,6.0,14.0,24,-99.99,,,-99.99,0.000000,,2013-05-01 05:21:00,
2013-04-30 23:30:00,39.0,1.0,-100.00,NE,50,9.0,18.0,19,-99.99,,,-99.99,0.000000,,2013-05-01 06:30:00,